SVA597 OMDB-OERK

Flight info

Callsign SVA597
Flight time N/A
Altitude 34000
Route SENPA N571 ALPOB L768 ULADA T136 OTISU N112 GETOT Q212 MEMGO
Aircraft A320/M-SDE3FGHIRWY/LB1

Departure

Time 2026-05-04 20:24
Airport Dubai International Airport (OMDB)

Arrival

Time N/A
Airport King Khalid International Airport (OERK)
Time Latitude Longitude Altitude Speed Heading
2026-05-04 19:49 25.25838 55.34565 26 ft 0 kts 211°
2026-05-04 19:49 25.25841 55.34567 26 ft 0 kts 211°
2026-05-04 20:02 25.25842 55.34567 22 ft 1 kts 211°
2026-05-04 20:02 25.25862 55.34581 23 ft 4 kts 211°
2026-05-04 20:02 25.25885 55.34597 23 ft 4 kts 211°
2026-05-04 20:03 25.25904 55.34609 23 ft 4 kts 206°
2026-05-04 20:03 25.25928 55.34616 24 ft 4 kts 166°
2026-05-04 20:03 25.25946 55.34603 24 ft 4 kts 121°
2026-05-04 20:03 25.25958 55.34580 22 ft 1 kts 121°
2026-05-04 20:05 25.25951 55.34593 24 ft 7 kts 121°
2026-05-04 20:06 25.25923 55.34644 24 ft 8 kts 121°
2026-05-04 20:06 25.25897 55.34690 22 ft 6 kts 121°
2026-05-04 20:06 25.25877 55.34727 22 ft 5 kts 121°
2026-05-04 20:06 25.25860 55.34756 22 ft 6 kts 122°
2026-05-04 20:07 25.25828 55.34812 22 ft 12 kts 122°
2026-05-04 20:07 25.25775 55.34905 22 ft 16 kts 122°
2026-05-04 20:07 25.25714 55.35015 22 ft 18 kts 119°
2026-05-04 20:07 25.25647 55.35138 22 ft 19 kts 122°
2026-05-04 20:08 25.25572 55.35271 23 ft 21 kts 122°
2026-05-04 20:08 25.25492 55.35414 22 ft 23 kts 122°
2026-05-04 20:08 25.25406 55.35566 24 ft 24 kts 121°
2026-05-04 20:08 25.25381 55.35686 23 ft 13 kts 44°
2026-05-04 20:09 25.25455 55.35733 22 ft 12 kts 31°
2026-05-04 20:09 25.25515 55.35773 22 ft 7 kts 30°
2026-05-04 20:09 25.25521 55.35777 22 ft 0 kts 31°
2026-05-04 20:19 25.25531 55.35784 22 ft 3 kts 31°
2026-05-04 20:19 25.25559 55.35803 22 ft 6 kts 32°
2026-05-04 20:19 25.25605 55.35835 22 ft 9 kts 32°
2026-05-04 20:20 25.25668 55.35880 22 ft 13 kts 31°
2026-05-04 20:20 25.25750 55.35946 24 ft 16 kts 66°
2026-05-04 20:20 25.25701 55.36072 22 ft 21 kts 123°
2026-05-04 20:20 25.25616 55.36221 22 ft 25 kts 121°
2026-05-04 20:21 25.25516 55.36395 22 ft 28 kts 121°
2026-05-04 20:21 25.25411 55.36583 22 ft 29 kts 122°
2026-05-04 20:21 25.25194 55.36969 22 ft 30 kts 121°
2026-05-04 20:22 25.25083 55.37170 22 ft 31 kts 122°
2026-05-04 20:22 25.24968 55.37372 22 ft 31 kts 122°
2026-05-04 20:22 25.24853 55.37578 23 ft 32 kts 122°
2026-05-04 20:22 25.24736 55.37785 22 ft 31 kts 122°
2026-05-04 20:23 25.24662 55.37931 24 ft 16 kts 91°
2026-05-04 20:23 25.24741 55.38002 22 ft 14 kts 31°
2026-05-04 20:23 25.24818 55.38005 22 ft 11 kts 302°
2026-05-04 20:23 25.24880 55.37887 22 ft 39 kts 300°
2026-05-04 20:24 25.25148 55.37390 23 ft 109 kts 301°
2026-05-04 20:24 25.25642 55.36488 22 ft 161 kts 300°
2026-05-04 20:24 25.26258 55.35311 351 ft 181 kts 300°
2026-05-04 20:24 25.26918 55.34130 1044 ft 180 kts 302°
2026-05-04 20:25 25.27589 55.32948 1715 ft 183 kts 302°
2026-05-04 20:25 25.28268 55.31744 2244 ft 186 kts 302°
2026-05-04 20:25 25.28952 55.30527 2785 ft 188 kts 302°
2026-05-04 20:25 25.29530 55.29227 3289 ft 192 kts 285°
2026-05-04 20:26 25.29708 55.27716 3670 ft 203 kts 277°
2026-05-04 20:26 25.29831 55.26142 4146 ft 208 kts 277°
2026-05-04 20:26 25.29955 55.24542 4664 ft 210 kts 277°
2026-05-04 20:26 25.30083 55.22918 5068 ft 219 kts 277°
2026-05-04 20:27 25.30226 55.21160 5229 ft 241 kts 278°
2026-05-04 20:27 25.30376 55.19273 5777 ft 249 kts 278°
2026-05-04 20:27 25.30363 55.17328 6331 ft 263 kts 269°
2026-05-04 20:27 25.30212 55.15230 6646 ft 283 kts 268°
2026-05-04 20:28 25.30041 55.13026 7252 ft 291 kts 268°
2026-05-04 20:28 25.29863 55.10814 7953 ft 295 kts 267°
2026-05-04 20:28 25.29679 55.08545 8684 ft 298 kts 267°
2026-05-04 20:28 25.29495 55.06247 9425 ft 302 kts 267°
2026-05-04 20:29 25.29310 55.03922 10108 ft 306 kts 267°
2026-05-04 20:29 25.29122 55.01499 10348 ft 328 kts 267°
2026-05-04 20:29 25.28923 54.98897 10491 ft 351 kts 267°
2026-05-04 20:29 25.28713 54.96151 10803 ft 364 kts 267°
2026-05-04 20:30 25.28518 54.93335 11379 ft 369 kts 268°
2026-05-04 20:30 25.28395 54.90500 12017 ft 371 kts 269°
2026-05-04 20:30 25.28318 54.87644 12670 ft 373 kts 270°
2026-05-04 20:30 25.28260 54.84770 13325 ft 375 kts 270°
2026-05-04 20:31 25.28203 54.81881 13924 ft 377 kts 269°
2026-05-04 20:31 25.28136 54.78980 14511 ft 379 kts 269°
2026-05-04 20:31 25.28084 54.76066 15087 ft 380 kts 272°
2026-05-04 20:31 25.28405 54.73168 15662 ft 381 kts 283°
2026-05-04 20:32 25.29104 54.70337 16241 ft 383 kts 285°
2026-05-04 20:32 25.29828 54.67497 16819 ft 385 kts 285°
2026-05-04 20:32 25.30553 54.64644 17387 ft 387 kts 285°
2026-05-04 20:32 25.31278 54.61772 17958 ft 389 kts 285°
2026-05-04 20:33 25.32003 54.58893 18464 ft 390 kts 285°
2026-05-04 20:33 25.32732 54.55993 18940 ft 392 kts 285°
2026-05-04 20:33 25.33464 54.53079 19415 ft 395 kts 284°
2026-05-04 20:33 25.34190 54.50146 19877 ft 397 kts 284°
2026-05-04 20:34 25.34920 54.47194 20326 ft 400 kts 284°
2026-05-04 20:34 25.35658 54.44222 20784 ft 402 kts 284°
2026-05-04 20:34 25.36390 54.41274 21228 ft 404 kts 284°
2026-05-04 20:34 25.37137 54.38267 21669 ft 407 kts 284°
2026-05-04 20:35 25.37888 54.35245 22115 ft 409 kts 284°
2026-05-04 20:35 25.38645 54.32200 22546 ft 412 kts 284°
2026-05-04 20:35 25.39407 54.29134 22989 ft 414 kts 284°
2026-05-04 20:35 25.40173 54.26055 23386 ft 417 kts 284°
2026-05-04 20:36 25.40945 54.22953 23740 ft 419 kts 284°
2026-05-04 20:36 25.41726 54.19844 24099 ft 420 kts 284°
2026-05-04 20:36 25.42514 54.16723 24449 ft 422 kts 284°
2026-05-04 20:36 25.43307 54.13597 24808 ft 423 kts 284°
2026-05-04 20:37 25.44111 54.10458 25180 ft 424 kts 284°
2026-05-04 20:37 25.44921 54.07315 25549 ft 425 kts 284°
2026-05-04 20:37 25.45738 54.04164 25894 ft 427 kts 284°
2026-05-04 20:37 25.46561 54.01006 26236 ft 428 kts 284°
2026-05-04 20:38 25.47391 53.97840 26569 ft 430 kts 284°
2026-05-04 20:38 25.48232 53.94657 26894 ft 431 kts 284°
2026-05-04 20:38 25.49069 53.91501 27195 ft 433 kts 284°
2026-05-04 20:38 25.49922 53.88302 27504 ft 434 kts 284°
2026-05-04 20:39 25.50783 53.85088 27802 ft 436 kts 284°
2026-05-04 20:39 25.51649 53.81868 28119 ft 437 kts 284°
2026-05-04 20:39 25.52521 53.78639 28415 ft 438 kts 284°
2026-05-04 20:39 25.53399 53.75402 28705 ft 440 kts 284°
2026-05-04 20:40 25.54283 53.72154 28977 ft 441 kts 284°
2026-05-04 20:40 25.55171 53.68905 29337 ft 441 kts 284°
2026-05-04 20:40 25.56065 53.65668 29814 ft 438 kts 284°
2026-05-04 20:40 25.56961 53.62457 30220 ft 435 kts 284°
2026-05-04 20:41 25.57851 53.59266 30581 ft 433 kts 284°
2026-05-04 20:41 25.58738 53.56087 30947 ft 431 kts 284°
2026-05-04 20:41 25.59620 53.52920 31304 ft 429 kts 284°
2026-05-04 20:41 25.60499 53.49760 31659 ft 428 kts 284°
2026-05-04 20:42 25.61374 53.46613 32021 ft 426 kts 284°
2026-05-04 20:42 25.62244 53.43477 32382 ft 425 kts 284°
2026-05-04 20:42 25.63109 53.40356 32743 ft 423 kts 284°
2026-05-04 20:42 25.63960 53.37283 33102 ft 422 kts 284°
2026-05-04 20:43 25.64818 53.34181 33470 ft 420 kts 284°
2026-05-04 20:43 25.65675 53.31084 33719 ft 420 kts 284°
2026-05-04 20:43 25.67381 53.24913 33760 ft 418 kts 284°
2026-05-04 20:44 25.69099 53.18756 33760 ft 417 kts 284°
2026-05-04 20:44 25.70823 53.12623 33770 ft 416 kts 284°
2026-05-04 20:45 25.72550 53.06496 33766 ft 417 kts 286°
2026-05-04 20:45 25.74685 53.00489 33762 ft 419 kts 289°
2026-05-04 20:46 25.76969 52.94531 33760 ft 420 kts 290°
2026-05-04 20:46 25.79265 52.88567 33761 ft 420 kts 290°
2026-05-04 20:47 25.81535 52.82592 33762 ft 420 kts 289°
2026-05-04 20:47 25.83792 52.76600 33761 ft 421 kts 289°
2026-05-04 20:48 25.86031 52.70642 33761 ft 421 kts 289°
2026-05-04 20:48 25.88286 52.64632 33765 ft 422 kts 289°
2026-05-04 20:49 25.90580 52.58636 33765 ft 423 kts 291°
2026-05-04 20:49 25.93146 52.52751 33770 ft 424 kts 293°
2026-05-04 20:50 25.95818 52.46914 33781 ft 424 kts 293°
2026-05-04 20:50 25.98443 52.41060 33781 ft 423 kts 292°
2026-05-04 20:51 26.01038 52.35196 33782 ft 422 kts 292°
2026-05-04 20:51 26.03650 52.29349 33783 ft 422 kts 292°
2026-05-04 20:52 26.06259 52.23505 33772 ft 422 kts 292°
2026-05-04 20:52 26.08858 52.17662 33770 ft 421 kts 292°
2026-05-04 20:53 26.11451 52.11819 33786 ft 421 kts 292°
2026-05-04 20:53 26.14026 52.06030 33785 ft 420 kts 292°
2026-05-04 20:54 26.16608 52.00196 33772 ft 420 kts 292°
2026-05-04 20:54 26.19210 51.94374 33776 ft 420 kts 292°
2026-05-04 20:55 26.21824 51.88551 33778 ft 420 kts 292°
2026-05-04 20:55 26.24396 51.82708 33797 ft 420 kts 291°
2026-05-04 20:56 26.26964 51.76857 33796 ft 420 kts 291°
2026-05-04 20:56 26.29563 51.71026 33797 ft 420 kts 292°
2026-05-04 20:57 26.31723 51.66192 33798 ft 420 kts 292°
2026-05-04 20:57 26.34752 51.59422 33794 ft 420 kts 292°
2026-05-04 20:58 26.37352 51.53592 33796 ft 419 kts 291°
2026-05-04 20:58 26.39092 51.48548 33806 ft 415 kts 285°
2026-05-04 20:59 26.41012 51.42527 33802 ft 415 kts 285°
2026-05-04 20:59 26.42948 51.36470 33801 ft 414 kts 285°
2026-05-04 21:00 26.44879 51.30438 33797 ft 414 kts 285°
2026-05-04 21:00 26.46812 51.24384 33791 ft 414 kts 285°
2026-05-04 21:01 26.48745 51.18326 33791 ft 414 kts 285°
2026-05-04 21:01 26.50678 51.12268 33810 ft 414 kts 285°
2026-05-04 21:02 26.52605 51.06218 33804 ft 413 kts 285°
2026-05-04 21:02 26.54515 51.00177 33799 ft 412 kts 285°
2026-05-04 21:03 26.56420 50.94138 33802 ft 412 kts 285°
2026-05-04 21:03 26.58324 50.88104 33798 ft 412 kts 285°
2026-05-04 21:04 26.60201 50.82058 33786 ft 412 kts 284°
2026-05-04 21:04 26.62062 50.76014 33809 ft 411 kts 284°
2026-05-04 21:05 26.63923 50.69974 33793 ft 411 kts 284°
2026-05-04 21:05 26.65760 50.63939 33793 ft 410 kts 284°
2026-05-04 21:06 26.67543 50.57890 33795 ft 410 kts 283°
2026-05-04 21:06 26.69309 50.51868 33794 ft 410 kts 283°
2026-05-04 21:07 26.71058 50.45812 33791 ft 409 kts 282°
2026-05-04 21:07 26.72637 50.39700 33824 ft 408 kts 281°
2026-05-04 21:08 26.74151 50.33595 33815 ft 406 kts 280°
2026-05-04 21:08 26.74524 50.27417 33808 ft 396 kts 260°
2026-05-04 21:09 26.72764 50.21625 33804 ft 396 kts 242°
2026-05-04 21:09 26.69992 50.16337 33808 ft 396 kts 242°
2026-05-04 21:10 26.67201 50.11025 33792 ft 396 kts 242°
2026-05-04 21:10 26.64413 50.05720 33775 ft 396 kts 242°
2026-05-04 21:11 26.61623 50.00418 33762 ft 395 kts 242°
2026-05-04 21:11 26.58834 49.95122 33739 ft 396 kts 242°
2026-05-04 21:12 26.56044 49.89815 33737 ft 396 kts 242°
2026-05-04 21:12 26.53247 49.84495 33726 ft 397 kts 241°
2026-05-04 21:13 26.50439 49.79171 33731 ft 398 kts 243°
2026-05-04 21:13 26.48456 49.73434 33721 ft 397 kts 252°
2026-05-04 21:14 26.46743 49.67563 33751 ft 398 kts 252°
2026-05-04 21:14 26.45011 49.61687 33753 ft 399 kts 252°
2026-05-04 21:15 26.43281 49.55807 33762 ft 399 kts 252°
2026-05-04 21:15 26.41561 49.49960 33765 ft 399 kts 252°
2026-05-04 21:16 26.39825 49.44070 33786 ft 399 kts 252°
2026-05-04 21:16 26.38087 49.38199 33801 ft 398 kts 252°
2026-05-04 21:17 26.36352 49.32336 33812 ft 397 kts 252°
2026-05-04 21:17 26.34621 49.26492 33809 ft 397 kts 252°
2026-05-04 21:18 26.32886 49.20652 33805 ft 397 kts 252°
2026-05-04 21:18 26.31150 49.14815 33811 ft 396 kts 252°
2026-05-04 21:19 26.29659 49.08914 33806 ft 397 kts 261°
2026-05-04 21:19 26.29192 49.02770 33794 ft 399 kts 263°
2026-05-04 21:20 26.28719 48.96607 33788 ft 399 kts 263°
2026-05-04 21:20 26.28235 48.90439 33794 ft 400 kts 263°
2026-05-04 21:21 26.27749 48.84257 33799 ft 401 kts 263°
2026-05-04 21:21 26.27264 48.78114 33801 ft 401 kts 263°
2026-05-04 21:22 26.26782 48.71923 33809 ft 401 kts 263°
2026-05-04 21:22 26.26305 48.65727 33811 ft 401 kts 263°
2026-05-04 21:23 26.25810 48.59527 33800 ft 402 kts 262°
2026-05-04 21:23 26.25308 48.53311 33811 ft 403 kts 262°
2026-05-04 21:24 26.23820 48.47350 33814 ft 401 kts 245°
2026-05-04 21:24 26.21475 48.41716 33807 ft 402 kts 245°
2026-05-04 21:25 26.19113 48.36067 33818 ft 402 kts 245°
2026-05-04 21:25 26.16746 48.30416 33826 ft 403 kts 245°
2026-05-04 21:26 26.14371 48.24757 33830 ft 403 kts 245°
2026-05-04 21:26 26.12006 48.19135 33824 ft 404 kts 244°
2026-05-04 21:27 26.08776 48.13974 33823 ft 406 kts 232°
2026-05-04 21:27 26.05196 48.09159 33834 ft 407 kts 232°
2026-05-04 21:28 26.01591 48.04309 33841 ft 407 kts 232°
2026-05-04 21:28 25.97981 47.99457 33840 ft 407 kts 232°
2026-05-04 21:29 25.94362 47.94589 33554 ft 409 kts 232°
2026-05-04 21:29 25.92545 47.92144 32623 ft 413 kts 232°
2026-05-04 21:29 25.90710 47.89681 31696 ft 416 kts 232°
2026-05-04 21:30 25.88860 47.87197 30780 ft 418 kts 232°
2026-05-04 21:30 25.86994 47.84691 29752 ft 424 kts 232°
2026-05-04 21:30 25.85104 47.82154 28574 ft 429 kts 232°
2026-05-04 21:30 25.83194 47.79590 27414 ft 433 kts 232°
2026-05-04 21:31 25.79347 47.74447 25510 ft 434 kts 232°
2026-05-04 21:31 25.77426 47.71882 24729 ft 431 kts 232°
2026-05-04 21:31 25.77349 47.71779 24685 ft 431 kts 232°
2026-05-04 21:34 25.76633 47.70823 24380 ft 431 kts 232°
2026-05-04 21:35 25.74720 47.68266 23601 ft 430 kts 232°
2026-05-04 21:35 25.72815 47.65721 22739 ft 428 kts 232°
2026-05-04 21:35 25.70918 47.63192 22010 ft 424 kts 232°
2026-05-04 21:35 25.69045 47.60697 21338 ft 418 kts 232°
2026-05-04 21:36 25.67199 47.58234 20722 ft 413 kts 232°
2026-05-04 21:36 25.65374 47.55800 20083 ft 408 kts 232°
2026-05-04 21:36 25.63577 47.53396 19472 ft 403 kts 232°
2026-05-04 21:36 25.63315 47.53047 19384 ft 402 kts 232°